Time,TemperatureF,DewpointF,PressureIn,WindDirection,WindDirectionDegrees,WindSpeedMPH,WindSpeedGustMPH,Humidity,HourlyPrecipIn,Conditions,Clouds,dailyrainin,SoftwareType,DateUTC
2013-06-26 00:02:00,62.1,27.7,29.72,NNW,344,9.0,9.0,27,0.00,,,0.00,meteohub,2013-06-26 06:02:00,
2013-06-26 00:07:00,62.2,27.9,29.72,NW,320,5.0,12.0,27,0.00,,,0.00,meteohub,2013-06-26 06:07:00,
2013-06-26 00:12:00,61.9,27.5,29.72,NNW,332,6.0,12.0,27,0.00,,,0.00,meteohub,2013-06-26 06:12:00,
2013-06-26 00:17:00,61.5,27.1,29.72,NNW,335,10.0,12.0,27,0.00,,,0.00,meteohub,2013-06-26 06:17:00,
2013-06-26 00:22:00,61.2,27.9,29.72,NNW,332,8.0,14.0,28,0.00,,,0.00,meteohub,2013-06-26 06:22:00,
2013-06-26 00:27:00,61.0,27.7,29.72,NW,324,7.0,14.0,28,0.00,,,0.00,meteohub,2013-06-26 06:27:00,
2013-06-26 00:32:00,61.2,28.6,29.72,NNW,329,7.0,14.0,29,0.00,,,0.00,meteohub,2013-06-26 06:32:00,
2013-06-26 00:37:00,61.3,28.8,29.72,NNW,329,6.0,10.0,29,0.00,,,0.00,meteohub,2013-06-26 06:37:00,
2013-06-26 00:42:00,61.5,28.0,29.72,NNW,330,4.0,10.0,28,0.00,,,0.00,meteohub,2013-06-26 06:42:00,
2013-06-26 00:47:00,61.3,28.8,29.72,NNW,336,5.0,9.0,29,0.00,,,0.00,meteohub,2013-06-26 06:47:00,
2013-06-26 00:52:00,60.6,28.2,29.72,NW,314,8.0,9.0,29,0.00,,,0.00,meteohub,2013-06-26 06:52:00,
2013-06-26 00:57:00,60.1,27.7,29.72,NNW,342,8.0,10.0,29,0.00,,,0.00,meteohub,2013-06-26 06:57:00,
2013-06-26 01:02:00,59.2,27.7,29.71,NW,322,8.0,10.0,30,0.00,,,0.00,meteohub,2013-06-26 07:02:00,
2013-06-26 01:07:00,59.4,27.1,29.71,NW,326,6.0,12.0,29,0.00,,,0.00,meteohub,2013-06-26 07:07:00,
2013-06-26 01:12:00,60.1,27.7,29.71,NW,320,6.0,12.0,29,0.00,,,0.00,meteohub,2013-06-26 07:12:00,
2013-06-26 01:17:00,59.7,27.3,29.71,NW,314,4.0,11.0,29,0.00,,,0.00,meteohub,2013-06-26 07:17:00,
2013-06-26 01:22:00,59.7,27.3,29.71,NNW,330,5.0,9.0,29,0.00,,,0.00,meteohub,2013-06-26 07:22:00,
2013-06-26 01:27:00,59.7,27.3,29.71,NNW,328,5.0,8.0,29,0.00,,,0.00,meteohub,2013-06-26 07:27:00,
2013-06-26 01:32:00,59.5,27.3,29.71,NNW,327,3.0,7.0,29,0.00,,,0.00,meteohub,2013-06-26 07:32:00,
2013-06-26 01:37:00,58.8,27.5,29.71,North,359,4.0,8.0,30,0.00,,,0.00,meteohub,2013-06-26 07:37:00,
2013-06-26 01:42:00,57.7,27.3,29.71,NNW,327,3.0,8.0,31,0.00,,,0.00,meteohub,2013-06-26 07:42:00,
2013-06-26 01:47:00,56.5,27.7,29.72,NNW,338,4.0,8.0,33,0.00,,,0.00,meteohub,2013-06-26 07:47:00,
2013-06-26 01:52:00,56.1,28.0,29.71,NNW,330,6.0,8.0,34,0.00,,,0.00,meteohub,2013-06-26 07:52:00,
2013-06-26 01:57:00,56.8,28.0,29.71,NNW,330,3.0,8.0,33,0.00,,,0.00,meteohub,2013-06-26 07:57:00,
2013-06-26 02:02:00,56.5,28.4,29.72,WSW,252,0.0,8.0,34,0.00,,,0.00,meteohub,2013-06-26 08:02:00,
2013-06-26 02:07:00,56.1,28.0,29.72,East,95,1.0,8.0,34,0.00,,,0.00,meteohub,2013-06-26 08:07:00,
2013-06-26 02:12:00,56.5,28.4,29.72,East,84,0.0,7.0,34,0.00,,,0.00,meteohub,2013-06-26 08:12:00,
2013-06-26 02:17:00,56.3,28.9,29.73,East,91,0.0,4.0,35,0.00,,,0.00,meteohub,2013-06-26 08:17:00,
2013-06-26 02:22:00,56.1,29.5,29.73,SE,124,1.0,3.0,36,0.00,,,0.00,meteohub,2013-06-26 08:22:00,
2013-06-26 02:27:00,56.1,29.5,29.73,ENE,73,1.0,3.0,36,0.00,,,0.00,meteohub,2013-06-26 08:27:00,
2013-06-26 02:32:00,56.1,29.5,29.73,NNW,336,0.0,3.0,36,0.00,,,0.00,meteohub,2013-06-26 08:32:00,
2013-06-26 02:37:00,55.8,29.1,29.73,NW,314,0.0,3.0,36,0.00,,,0.00,meteohub,2013-06-26 08:37:00,
2013-06-26 02:42:00,55.9,29.3,29.73,WNW,288,2.0,3.0,36,0.00,,,0.00,meteohub,2013-06-26 08:42:00,
2013-06-26 02:47:00,55.8,29.1,29.74,NW,315,3.0,7.0,36,0.00,,,0.00,meteohub,2013-06-26 08:47:00,
2013-06-26 02:52:00,55.9,28.8,29.74,NW,318,5.0,7.0,35,0.00,,,0.00,meteohub,2013-06-26 08:52:00,
2013-06-26 02:57:00,55.9,28.8,29.73,NW,323,7.0,7.0,35,0.00,,,0.00,meteohub,2013-06-26 08:57:00,
2013-06-26 03:02:00,56.1,28.8,29.73,NW,326,8.0,10.0,35,0.00,,,0.00,meteohub,2013-06-26 09:02:00,
2013-06-26 03:07:00,56.1,28.8,29.74,NW,326,5.0,10.0,35,0.00,,,0.00,meteohub,2013-06-26 09:07:00,
2013-06-26 03:12:00,55.8,28.6,29.74,WNW,298,3.0,10.0,35,0.00,,,0.00,meteohub,2013-06-26 09:12:00,
2013-06-26 03:17:00,55.8,29.1,29.74,NW,318,2.0,9.0,36,0.00,,,0.00,meteohub,2013-06-26 09:17:00,
2013-06-26 03:22:00,55.9,28.8,29.74,NW,307,4.0,8.0,35,0.00,,,0.00,meteohub,2013-06-26 09:22:00,
2013-06-26 03:27:00,57.4,28.6,29.74,WNW,302,3.0,8.0,33,0.00,,,0.00,meteohub,2013-06-26 09:27:00,
2013-06-26 03:32:00,58.3,28.6,29.74,ESE,103,1.0,8.0,32,0.00,,,0.00,meteohub,2013-06-26 09:32:00,
2013-06-26 03:37:00,56.8,28.0,29.74,ESE,105,0.0,6.0,33,0.00,,,0.00,meteohub,2013-06-26 09:37:00,
2013-06-26 03:42:00,56.5,28.4,29.75,ESE,104,0.0,4.0,34,0.00,,,0.00,meteohub,2013-06-26 09:42:00,
2013-06-26 03:47:00,55.8,28.6,29.74,ESE,104,0.0,3.0,35,0.00,,,0.00,meteohub,2013-06-26 09:47:00,
2013-06-26 03:52:00,55.6,29.1,29.74,North,4,2.0,3.0,36,0.00,,,0.00,meteohub,2013-06-26 09:52:00,
2013-06-26 03:57:00,55.0,28.6,29.74,NNW,330,2.0,3.0,36,0.00,,,0.00,meteohub,2013-06-26 09:57:00,
2013-06-26 04:02:00,54.3,28.6,29.75,NNW,335,3.0,3.0,37,0.00,,,0.00,meteohub,2013-06-26 10:02:00,
2013-06-26 04:07:00,53.4,28.4,29.75,NNW,335,5.0,5.0,38,0.00,,,0.00,meteohub,2013-06-26 10:07:00,
2013-06-26 04:12:00,53.2,27.7,29.75,NNW,333,4.0,6.0,37,0.00,,,0.00,meteohub,2013-06-26 10:12:00,
2013-06-26 04:17:00,52.9,28.0,29.75,NW,326,4.0,6.0,38,0.00,,,0.00,meteohub,2013-06-26 10:17:00,
2013-06-26 04:22:00,52.0,28.4,29.75,NW,325,5.0,6.0,40,0.00,,,0.00,meteohub,2013-06-26 10:22:00,
2013-06-26 04:27:00,51.3,28.9,29.75,NNW,335,6.0,7.0,42,0.00,,,0.00,meteohub,2013-06-26 10:27:00,
2013-06-26 04:32:00,51.1,28.8,29.75,NNW,330,5.0,7.0,42,0.00,,,0.00,meteohub,2013-06-26 10:32:00,
2013-06-26 04:37:00,51.3,28.9,29.75,NW,319,7.0,7.0,42,0.00,,,0.00,meteohub,2013-06-26 10:37:00,
2013-06-26 04:42:00,51.8,28.8,29.75,NW,310,10.0,10.0,41,0.00,,,0.00,meteohub,2013-06-26 10:42:00,
2013-06-26 04:47:00,52.0,28.9,29.76,NW,323,7.0,11.0,41,0.00,,,0.00,meteohub,2013-06-26 10:47:00,
2013-06-26 04:52:00,51.6,28.8,29.76,NNW,330,8.0,12.0,41,0.00,,,0.00,meteohub,2013-06-26 10:52:00,
2013-06-26 04:57:00,51.4,29.7,29.75,NW,314,9.0,13.0,43,0.00,,,0.00,meteohub,2013-06-26 10:57:00,
2013-06-26 05:02:00,51.4,29.7,29.76,NNW,340,8.0,14.0,43,0.00,,,0.00,meteohub,2013-06-26 11:02:00,
2013-06-26 05:07:00,51.3,29.5,29.76,NNW,329,7.0,14.0,43,0.00,,,0.00,meteohub,2013-06-26 11:07:00,
2013-06-26 05:12:00,50.7,29.1,29.76,NNW,345,5.0,14.0,43,0.00,,,0.00,meteohub,2013-06-26 11:12:00,
2013-06-26 05:17:00,51.1,28.8,29.76,NW,325,9.0,10.0,42,0.00,,,0.00,meteohub,2013-06-26 11:17:00,
2013-06-26 05:22:00,51.4,28.6,29.76,NNW,329,7.0,10.0,41,0.00,,,0.00,meteohub,2013-06-26 11:22:00,
2013-06-26 05:27:00,51.8,28.2,29.77,NNW,329,4.0,10.0,40,0.00,,,0.00,meteohub,2013-06-26 11:27:00,
2013-06-26 05:32:00,52.0,28.4,29.77,NW,326,4.0,10.0,40,0.00,,,0.00,meteohub,2013-06-26 11:32:00,
2013-06-26 05:37:00,52.2,27.9,29.77,NW,321,5.0,8.0,39,0.00,,,0.00,meteohub,2013-06-26 11:37:00,
2013-06-26 05:42:00,52.5,28.2,29.77,NNW,330,5.0,7.0,39,0.00,,,0.00,meteohub,2013-06-26 11:42:00,
2013-06-26 05:47:00,52.9,28.0,29.78,NNW,330,6.0,6.0,38,0.00,,,0.00,meteohub,2013-06-26 11:47:00,
2013-06-26 05:52:00,52.5,28.2,29.78,NNW,329,4.0,8.0,39,0.00,,,0.00,meteohub,2013-06-26 11:52:00,
2013-06-26 05:57:00,51.8,28.2,29.78,NW,325,4.0,9.0,40,0.00,,,0.00,meteohub,2013-06-26 11:57:00,
2013-06-26 06:02:00,51.8,28.2,29.78,NW,323,7.0,9.0,40,0.00,,,0.00,meteohub,2013-06-26 12:02:00,
2013-06-26 06:08:00,52.5,28.2,29.79,NNW,328,7.0,9.0,39,0.00,,,0.00,meteohub,2013-06-26 12:08:00,
2013-06-26 06:13:00,52.3,28.0,29.79,NW,326,8.0,9.0,39,0.00,,,0.00,meteohub,2013-06-26 12:13:00,
2013-06-26 06:18:00,52.9,28.6,29.79,NW,320,6.0,9.0,39,0.00,,,0.00,meteohub,2013-06-26 12:18:00,
2013-06-26 06:23:00,52.9,29.3,29.79,NNW,335,4.0,9.0,40,0.00,,,0.00,meteohub,2013-06-26 12:23:00,
2013-06-26 06:28:00,52.5,28.9,29.79,NNW,329,4.0,9.0,40,0.00,,,0.00,meteohub,2013-06-26 12:28:00,
2013-06-26 06:33:00,52.7,29.1,29.79,WNW,301,2.0,7.0,40,0.00,,,0.00,meteohub,2013-06-26 12:33:00,
2013-06-26 06:38:00,53.2,29.5,29.79,NNW,328,2.0,7.0,40,0.00,,,0.00,meteohub,2013-06-26 12:38:00,
2013-06-26 06:43:00,54.0,29.5,29.79,NW,325,6.0,6.0,39,0.00,,,0.00,meteohub,2013-06-26 12:43:00,
2013-06-26 06:48:00,54.3,29.8,29.80,NNW,332,3.0,7.0,39,0.00,,,0.00,meteohub,2013-06-26 12:48:00,
2013-06-26 06:53:00,54.7,29.5,29.80,NNW,333,3.0,7.0,38,0.00,,,0.00,meteohub,2013-06-26 12:53:00,
2013-06-26 06:58:00,55.0,29.3,29.80,NNW,342,4.0,7.0,37,0.00,,,0.00,meteohub,2013-06-26 12:58:00,
2013-06-26 07:03:00,55.0,29.8,29.80,NW,320,4.0,6.0,38,0.00,,,0.00,meteohub,2013-06-26 13:03:00,
2013-06-26 07:08:00,55.2,30.0,29.80,NW,326,3.0,6.0,38,0.00,,,0.00,meteohub,2013-06-26 13:08:00,
2013-06-26 07:13:00,55.4,30.2,29.80,WNW,297,1.0,6.0,38,0.00,,,0.00,meteohub,2013-06-26 13:13:00,
2013-06-26 07:19:00,55.8,30.6,29.81,NW,316,2.0,5.0,38,0.00,,,0.00,meteohub,2013-06-26 13:19:00,
2013-06-26 07:24:00,56.1,30.9,29.81,NNW,332,1.0,5.0,38,0.00,,,0.00,meteohub,2013-06-26 13:24:00,
2013-06-26 07:29:00,56.8,31.5,29.81,NNE,26,4.0,4.0,38,0.00,,,0.00,meteohub,2013-06-26 13:29:00,
2013-06-26 07:34:00,57.0,31.6,29.81,NNW,346,3.0,4.0,38,0.00,,,0.00,meteohub,2013-06-26 13:34:00,
2013-06-26 07:39:00,57.2,33.1,29.81,NNW,333,3.0,4.0,40,0.00,,,0.00,meteohub,2013-06-26 13:39:00,
2013-06-26 07:44:00,57.6,34.7,29.81,NE,36,3.0,4.0,42,0.00,,,0.00,meteohub,2013-06-26 13:44:00,
2013-06-26 07:49:00,57.4,34.5,29.81,NNW,336,1.0,5.0,42,0.00,,,0.00,meteohub,2013-06-26 13:49:00,
2013-06-26 07:54:00,57.0,34.2,29.81,NNW,330,2.0,6.0,42,0.00,,,0.00,meteohub,2013-06-26 13:54:00,
2013-06-26 07:59:00,57.6,34.0,29.81,NW,323,2.0,6.0,41,0.00,,,0.00,meteohub,2013-06-26 13:59:00,
2013-06-26 08:04:00,58.5,34.9,29.81,NNE,23,4.0,5.0,41,0.00,,,0.00,meteohub,2013-06-26 14:04:00,
2013-06-26 08:09:00,58.5,33.6,29.81,North,351,4.0,6.0,39,0.00,,,0.00,meteohub,2013-06-26 14:09:00,
2013-06-26 08:14:00,59.2,34.9,29.81,NNW,330,2.0,6.0,40,0.00,,,0.00,meteohub,2013-06-26 14:14:00,
2013-06-26 08:19:00,59.9,34.2,29.81,NW,314,4.0,6.0,38,0.00,,,0.00,meteohub,2013-06-26 14:19:00,
2013-06-26 08:24:00,60.3,33.8,29.81,NW,321,2.0,6.0,37,0.00,,,0.00,meteohub,2013-06-26 14:24:00,
2013-06-26 08:29:00,61.3,36.1,29.81,NNE,13,5.0,6.0,39,0.00,,,0.00,meteohub,2013-06-26 14:29:00,
2013-06-26 08:35:00,61.5,36.3,29.81,North,9,4.0,6.0,39,0.00,,,0.00,meteohub,2013-06-26 14:35:00,
2013-06-26 08:40:00,61.5,35.1,29.81,NNE,26,4.0,7.0,37,0.00,,,0.00,meteohub,2013-06-26 14:40:00,
2013-06-26 08:45:00,61.9,35.2,29.81,NNE,13,3.0,7.0,37,0.00,,,0.00,meteohub,2013-06-26 14:45:00,
2013-06-26 08:50:00,62.6,36.7,29.81,NNE,18,4.0,7.0,38,0.00,,,0.00,meteohub,2013-06-26 14:50:00,
2013-06-26 08:53:00,62.8,36.1,29.81,NW,325,3.0,7.0,37,0.00,,,0.00,meteohub,2013-06-26 14:53:00,
2013-06-26 08:57:00,62.8,35.4,29.81,NNE,22,3.0,7.0,36,0.00,,,0.00,meteohub,2013-06-26 14:57:00,
2013-06-26 09:02:00,63.5,36.1,29.81,NNE,31,4.0,7.0,36,0.00,,,0.00,meteohub,2013-06-26 15:02:00,
2013-06-26 09:07:00,64.0,36.5,29.82,NNE,26,4.0,7.0,36,0.00,,,0.00,meteohub,2013-06-26 15:07:00,
2013-06-26 09:12:00,64.4,36.1,29.81,NNE,18,1.0,6.0,35,0.00,,,0.00,meteohub,2013-06-26 15:12:00,
2013-06-26 09:17:00,64.8,32.5,29.81,North,8,2.0,6.0,30,0.00,,,0.00,meteohub,2013-06-26 15:17:00,
2013-06-26 09:22:00,65.8,33.6,29.81,WSW,247,1.0,6.0,30,0.00,,,0.00,meteohub,2013-06-26 15:22:00,
2013-06-26 09:27:00,66.9,34.5,29.81,NNW,336,3.0,6.0,30,0.00,,,0.00,meteohub,2013-06-26 15:27:00,
2013-06-26 09:32:00,67.8,36.1,29.81,ESE,105,3.0,6.0,31,0.00,,,0.00,meteohub,2013-06-26 15:32:00,
2013-06-26 09:37:00,68.0,35.4,29.81,ENE,61,5.0,6.0,30,0.00,,,0.00,meteohub,2013-06-26 15:37:00,
2013-06-26 09:42:00,68.2,35.6,29.81,ENE,69,4.0,6.0,30,0.00,,,0.00,meteohub,2013-06-26 15:42:00,
2013-06-26 09:47:00,69.1,32.7,29.81,East,82,5.0,6.0,26,0.00,,,0.00,meteohub,2013-06-26 15:47:00,
2013-06-26 09:52:00,70.0,32.5,29.81,ESE,123,4.0,6.0,25,0.00,,,0.00,meteohub,2013-06-26 15:52:00,
2013-06-26 09:57:00,70.0,32.5,29.81,ESE,121,2.0,9.0,25,0.00,,,0.00,meteohub,2013-06-26 15:57:00,
2013-06-26 10:02:00,70.5,33.1,29.81,East,81,4.0,9.0,25,0.00,,,0.00,meteohub,2013-06-26 16:02:00,
2013-06-26 10:07:00,71.1,32.4,29.81,SSE,149,2.0,9.0,24,0.00,,,0.00,meteohub,2013-06-26 16:07:00,
2013-06-26 10:12:00,71.6,31.8,29.81,ENE,63,3.0,6.0,23,0.00,,,0.00,meteohub,2013-06-26 16:12:00,
2013-06-26 10:17:00,72.5,31.5,29.81,ESE,117,9.0,9.0,22,0.00,,,0.00,meteohub,2013-06-26 16:17:00,
2013-06-26 10:22:00,72.3,30.2,29.81,East,84,0.0,9.0,21,0.00,,,0.00,meteohub,2013-06-26 16:22:00,
2013-06-26 10:27:00,72.9,30.6,29.81,East,98,6.0,9.0,21,0.00,,,0.00,meteohub,2013-06-26 16:27:00,
2013-06-26 10:32:00,73.9,30.4,29.81,NE,36,7.0,10.0,20,0.00,,,0.00,meteohub,2013-06-26 16:32:00,
2013-06-26 10:37:00,73.9,29.1,29.81,NNE,32,4.0,10.0,19,0.00,,,0.00,meteohub,2013-06-26 16:37:00,
2013-06-26 10:42:00,74.5,32.0,29.81,SE,134,4.0,11.0,21,0.00,,,0.00,meteohub,2013-06-26 16:42:00,
2013-06-26 10:47:00,74.7,29.7,29.81,ESE,120,2.0,11.0,19,0.00,,,0.00,meteohub,2013-06-26 16:47:00,
2013-06-26 10:52:00,74.8,29.8,29.81,NE,40,8.0,9.0,19,0.00,,,0.00,meteohub,2013-06-26 16:52:00,
2013-06-26 10:57:00,75.0,30.0,29.81,North,4,2.0,10.0,19,0.00,,,0.00,meteohub,2013-06-26 16:57:00,
2013-06-26 11:02:00,74.7,29.7,29.81,NE,39,6.0,10.0,19,0.00,,,0.00,meteohub,2013-06-26 17:02:00,
2013-06-26 11:07:00,75.2,30.0,29.80,SW,225,6.0,10.0,19,0.00,,,0.00,meteohub,2013-06-26 17:07:00,
2013-06-26 11:12:00,75.9,29.3,29.80,NW,309,2.0,9.0,18,0.00,,,0.00,meteohub,2013-06-26 17:12:00,
2013-06-26 11:17:00,77.2,28.9,29.80,SE,138,6.0,9.0,17,0.00,,,0.00,meteohub,2013-06-26 17:17:00,
2013-06-26 11:22:00,77.4,29.1,29.80,SSE,162,2.0,10.0,17,0.00,,,0.00,meteohub,2013-06-26 17:22:00,
2013-06-26 11:27:00,78.3,29.8,29.79,East,89,4.0,10.0,17,0.00,,,0.00,meteohub,2013-06-26 17:27:00,
2013-06-26 11:32:00,78.3,29.8,29.79,ESE,105,8.0,10.0,17,0.00,,,0.00,meteohub,2013-06-26 17:32:00,
2013-06-26 11:37:00,78.8,30.4,29.79,SE,134,4.0,11.0,17,0.00,,,0.00,meteohub,2013-06-26 17:37:00,
2013-06-26 11:42:00,79.0,28.9,29.79,ENE,58,5.0,11.0,16,0.00,,,0.00,meteohub,2013-06-26 17:42:00,
2013-06-26 11:47:00,78.4,30.0,29.79,ESE,115,4.0,14.0,17,0.00,,,0.00,meteohub,2013-06-26 17:47:00,
2013-06-26 11:52:00,78.3,29.8,29.79,NW,311,3.0,14.0,17,0.00,,,0.00,meteohub,2013-06-26 17:52:00,
2013-06-26 11:57:00,77.7,29.5,29.79,SW,224,1.0,14.0,17,0.00,,,0.00,meteohub,2013-06-26 17:57:00,
2013-06-26 12:02:00,78.1,29.7,29.78,NNW,335,4.0,11.0,17,0.00,,,0.00,meteohub,2013-06-26 18:02:00,
2013-06-26 12:07:00,77.7,29.5,29.78,NW,326,4.0,11.0,17,0.00,,,0.00,meteohub,2013-06-26 18:07:00,
2013-06-26 12:12:00,78.3,29.8,29.78,NNE,25,3.0,11.0,17,0.00,,,0.00,meteohub,2013-06-26 18:12:00,
2013-06-26 12:17:00,77.7,30.9,29.78,North,359,4.0,11.0,18,0.00,,,0.00,meteohub,2013-06-26 18:17:00,
2013-06-26 12:22:00,79.0,30.4,29.78,NE,49,4.0,11.0,17,0.00,,,0.00,meteohub,2013-06-26 18:22:00,
2013-06-26 12:27:00,79.5,29.5,29.78,ESE,108,8.0,11.0,16,0.00,,,0.00,meteohub,2013-06-26 18:27:00,
2013-06-26 12:32:00,78.6,30.2,29.78,ENE,75,4.0,14.0,17,0.00,,,0.00,meteohub,2013-06-26 18:32:00,
2013-06-26 12:37:00,78.6,30.2,29.78,SE,146,4.0,16.0,17,0.00,,,0.00,meteohub,2013-06-26 18:37:00,
2013-06-26 12:42:00,79.3,29.3,29.78,SSE,150,14.0,16.0,16,0.00,,,0.00,meteohub,2013-06-26 18:42:00,
2013-06-26 12:47:00,79.9,29.7,29.77,SE,143,8.0,16.0,16,0.00,,,0.00,meteohub,2013-06-26 18:47:00,
2013-06-26 12:52:00,79.9,29.7,29.77,East,101,10.0,15.0,16,0.00,,,0.00,meteohub,2013-06-26 18:52:00,
2013-06-26 12:57:00,80.6,30.2,29.77,ENE,74,9.0,15.0,16,0.00,,,0.00,meteohub,2013-06-26 18:57:00,
2013-06-26 13:02:00,81.1,29.1,29.76,SW,215,6.0,15.0,15,0.00,,,0.00,meteohub,2013-06-26 19:02:00,
2013-06-26 13:07:00,81.0,28.9,29.76,WSW,238,6.0,14.0,15,0.00,,,0.00,meteohub,2013-06-26 19:07:00,
2013-06-26 13:12:00,80.8,28.8,29.75,NW,309,3.0,14.0,15,0.00,,,0.00,meteohub,2013-06-26 19:12:00,
2013-06-26 13:17:00,80.4,28.6,29.75,ESE,112,6.0,14.0,15,0.00,,,0.00,meteohub,2013-06-26 19:17:00,
2013-06-26 13:22:00,80.2,28.4,29.75,NE,46,3.0,11.0,15,0.00,,,0.00,meteohub,2013-06-26 19:22:00,
2013-06-26 13:27:00,80.4,28.6,29.75,SE,127,4.0,11.0,15,0.00,,,0.00,meteohub,2013-06-26 19:27:00,
2013-06-26 13:32:00,81.1,27.5,29.74,ENE,64,8.0,11.0,14,0.00,,,0.00,meteohub,2013-06-26 19:32:00,
2013-06-26 13:37:00,81.1,29.1,29.74,NW,313,8.0,12.0,15,0.00,,,0.00,meteohub,2013-06-26 19:37:00,
2013-06-26 13:42:00,80.6,27.0,29.74,NE,55,4.0,15.0,14,0.00,,,0.00,meteohub,2013-06-26 19:42:00,
2013-06-26 13:47:00,80.8,28.8,29.73,NNE,18,6.0,15.0,15,0.00,,,0.00,meteohub,2013-06-26 19:47:00,
2013-06-26 13:52:00,82.0,28.2,29.73,East,95,4.0,15.0,14,0.00,,,0.00,meteohub,2013-06-26 19:52:00,
2013-06-26 13:57:00,82.9,27.0,29.73,SE,136,11.0,16.0,13,0.00,,,0.00,meteohub,2013-06-26 19:57:00,
2013-06-26 14:02:00,82.9,27.0,29.73,SE,136,3.0,18.0,13,0.00,,,0.00,meteohub,2013-06-26 20:02:00,
2013-06-26 14:07:00,83.7,25.7,29.73,SE,143,6.0,18.0,12,0.00,,,0.00,meteohub,2013-06-26 20:07:00,
2013-06-26 14:12:00,84.2,26.1,29.73,SW,217,16.0,18.0,12,0.00,,,0.00,meteohub,2013-06-26 20:12:00,
2013-06-26 14:17:00,84.2,26.1,29.72,SE,124,9.0,18.0,12,0.00,,,0.00,meteohub,2013-06-26 20:17:00,
2013-06-26 14:22:00,84.0,25.9,29.72,South,180,10.0,23.0,12,0.00,,,0.00,meteohub,2013-06-26 20:22:00,
2013-06-26 14:27:00,83.1,25.3,29.72,SSE,160,13.0,23.0,12,0.00,,,0.00,meteohub,2013-06-26 20:27:00,
2013-06-26 14:32:00,83.5,25.5,29.72,SE,142,11.0,23.0,12,0.00,,,0.00,meteohub,2013-06-26 20:32:00,
2013-06-26 14:37:00,83.7,25.7,29.72,ESE,117,13.0,20.0,12,0.00,,,0.00,meteohub,2013-06-26 20:37:00,
2013-06-26 14:42:00,84.2,26.1,29.72,South,188,5.0,20.0,12,0.00,,,0.00,meteohub,2013-06-26 20:42:00,
2013-06-26 14:47:00,85.1,26.8,29.72,WSW,245,0.0,26.0,12,0.00,,,0.00,meteohub,2013-06-26 20:47:00,
2013-06-26 14:52:00,85.8,25.2,29.71,SSW,203,9.0,26.0,11,0.00,,,0.00,meteohub,2013-06-26 20:52:00,
2013-06-26 14:57:00,86.0,25.3,29.72,SW,227,2.0,18.0,11,0.00,,,0.00,meteohub,2013-06-26 20:57:00,
2013-06-26 15:02:00,85.8,23.0,29.72,SE,127,5.0,19.0,10,0.00,,,0.00,meteohub,2013-06-26 21:02:00,
2013-06-26 15:07:00,85.3,24.8,29.71,SW,233,10.0,19.0,11,0.00,,,0.00,meteohub,2013-06-26 21:07:00,
2013-06-26 15:12:00,85.3,24.8,29.71,WSW,248,7.0,19.0,11,0.00,,,0.00,meteohub,2013-06-26 21:12:00,
2013-06-26 15:17:00,85.5,25.0,29.70,WSW,248,13.0,19.0,11,0.00,,,0.00,meteohub,2013-06-26 21:17:00,
2013-06-26 15:22:00,85.6,25.2,29.71,WSW,240,4.0,20.0,11,0.00,,,0.00,meteohub,2013-06-26 21:22:00,
2013-06-26 15:27:00,85.3,27.0,29.71,NW,325,8.0,20.0,12,0.00,,,0.00,meteohub,2013-06-26 21:27:00,
2013-06-26 15:33:00,84.9,26.6,29.71,NW,321,6.0,20.0,12,0.00,,,0.00,meteohub,2013-06-26 21:33:00,
2013-06-26 15:38:00,84.9,26.6,29.71,NW,313,3.0,19.0,12,0.00,,,0.00,meteohub,2013-06-26 21:38:00,
2013-06-26 15:43:00,84.9,26.6,29.71,NW,314,9.0,19.0,12,0.00,,,0.00,meteohub,2013-06-26 21:43:00,
2013-06-26 15:48:00,85.1,24.6,29.71,NW,305,1.0,17.0,11,0.00,,,0.00,meteohub,2013-06-26 21:48:00,
2013-06-26 15:53:00,85.6,22.8,29.70,WNW,301,5.0,17.0,10,0.00,,,0.00,meteohub,2013-06-26 21:53:00,
2013-06-26 15:58:00,86.2,20.7,29.70,South,176,5.0,12.0,9,0.00,,,0.00,meteohub,2013-06-26 21:58:00,
2013-06-26 16:03:00,86.5,23.5,29.70,West,266,4.0,11.0,10,0.00,,,0.00,meteohub,2013-06-26 22:03:00,
2013-06-26 16:08:00,86.2,11.5,29.70,WSW,238,7.0,11.0,6,0.00,,,0.00,meteohub,2013-06-26 22:08:00,
2013-06-26 16:13:00,85.8,11.1,29.70,WSW,239,11.0,18.0,6,0.00,,,0.00,meteohub,2013-06-26 22:13:00,
2013-06-26 16:18:00,85.8,17.8,29.70,SSW,203,8.0,18.0,8,0.00,,,0.00,meteohub,2013-06-26 22:18:00,
2013-06-26 16:23:00,86.7,11.8,29.70,West,276,4.0,18.0,6,0.00,,,0.00,meteohub,2013-06-26 22:23:00,
2013-06-26 16:28:00,86.9,11.8,29.70,WNW,302,2.0,17.0,6,0.00,,,0.00,meteohub,2013-06-26 22:28:00,
2013-06-26 16:33:00,86.7,15.3,29.70,SSW,210,6.0,15.0,7,0.00,,,0.00,meteohub,2013-06-26 22:33:00,
2013-06-26 16:38:00,86.0,17.8,29.70,WNW,283,12.0,18.0,8,0.00,,,0.00,meteohub,2013-06-26 22:38:00,
2013-06-26 16:43:00,86.2,18.0,29.70,WSW,239,8.0,21.0,8,0.00,,,0.00,meteohub,2013-06-26 22:43:00,
2013-06-26 16:49:00,86.0,20.7,29.70,SSW,204,2.0,21.0,9,0.00,,,0.00,meteohub,2013-06-26 22:49:00,
2013-06-26 16:54:00,86.5,18.3,29.70,SSW,210,11.0,18.0,8,0.00,,,0.00,meteohub,2013-06-26 22:54:00,
2013-06-26 16:59:00,85.8,17.8,29.70,South,188,4.0,18.0,8,0.00,,,0.00,meteohub,2013-06-26 22:59:00,
2013-06-26 17:04:00,86.7,15.3,29.70,West,269,2.0,18.0,7,0.00,,,0.00,meteohub,2013-06-26 23:04:00,
2013-06-26 17:09:00,87.3,18.9,29.70,South,172,5.0,18.0,8,0.00,,,0.00,meteohub,2013-06-26 23:09:00,
2013-06-26 17:14:00,87.1,21.4,29.70,SSW,198,4.0,18.0,9,0.00,,,0.00,meteohub,2013-06-26 23:14:00,
2013-06-26 17:19:00,87.1,23.9,29.70,SW,233,5.0,13.0,10,0.00,,,0.00,meteohub,2013-06-26 23:19:00,
2013-06-26 17:24:00,86.5,25.9,29.69,NNW,343,3.0,14.0,11,0.00,,,0.00,meteohub,2013-06-26 23:24:00,
2013-06-26 17:29:00,86.5,21.0,29.69,West,260,10.0,14.0,9,0.00,,,0.00,meteohub,2013-06-26 23:29:00,
2013-06-26 17:34:00,86.2,20.7,29.69,SW,233,10.0,14.0,9,0.00,,,0.00,meteohub,2013-06-26 23:34:00,
2013-06-26 17:39:00,86.0,23.2,29.69,SSW,201,1.0,14.0,10,0.00,,,0.00,meteohub,2013-06-26 23:39:00,
2013-06-26 17:44:00,86.4,23.4,29.69,WSW,256,3.0,14.0,10,0.00,,,0.00,meteohub,2013-06-26 23:44:00,
2013-06-26 17:49:00,86.4,23.4,29.68,NNW,333,5.0,14.0,10,0.00,,,0.00,meteohub,2013-06-26 23:49:00,
2013-06-26 17:54:00,87.1,21.4,29.68,NW,308,1.0,12.0,9,0.00,,,0.00,meteohub,2013-06-26 23:54:00,
2013-06-26 17:59:00,86.9,21.2,29.68,NNW,335,6.0,12.0,9,0.00,,,0.00,meteohub,2013-06-26 23:59:00,
2013-06-26 18:04:00,86.4,18.1,29.69,WNW,290,5.0,10.0,8,0.00,,,0.00,meteohub,2013-06-27 00:04:00,
2013-06-26 18:10:00,85.6,17.6,29.69,West,260,5.0,11.0,8,0.00,,,0.00,meteohub,2013-06-27 00:10:00,
2013-06-26 18:15:00,85.5,20.1,29.68,WSW,246,8.0,14.0,9,0.00,,,0.00,meteohub,2013-06-27 00:15:00,
2013-06-26 18:20:00,85.6,22.8,29.68,SSW,208,6.0,14.0,10,0.00,,,0.00,meteohub,2013-06-27 00:20:00,
2013-06-26 18:25:00,86.0,23.2,29.68,West,259,5.0,14.0,10,0.00,,,0.00,meteohub,2013-06-27 00:25:00,
2013-06-26 18:30:00,85.8,20.5,29.68,NW,322,6.0,14.0,9,0.00,,,0.00,meteohub,2013-06-27 00:30:00,
2013-06-26 18:35:00,85.6,22.8,29.69,WSW,238,3.0,13.0,10,0.00,,,0.00,meteohub,2013-06-27 00:35:00,
2013-06-26 18:40:00,85.6,20.3,29.68,WNW,302,1.0,8.0,9,0.00,,,0.00,meteohub,2013-06-27 00:40:00,
2013-06-26 18:45:00,85.8,23.0,29.68,NNW,338,6.0,8.0,10,0.00,,,0.00,meteohub,2013-06-27 00:45:00,
2013-06-26 18:50:00,85.6,22.8,29.68,NW,307,4.0,8.0,10,0.00,,,0.00,meteohub,2013-06-27 00:50:00,
2013-06-26 18:55:00,85.6,22.8,29.69,NNW,335,2.0,7.0,10,0.00,,,0.00,meteohub,2013-06-27 00:55:00,
2013-06-26 19:00:00,86.4,23.4,29.69,SW,226,0.0,6.0,10,0.00,,,0.00,meteohub,2013-06-27 01:00:00,
2013-06-26 19:05:00,86.4,23.4,29.69,NW,316,4.0,9.0,10,0.00,,,0.00,meteohub,2013-06-27 01:05:00,
2013-06-26 19:10:00,85.8,23.0,29.69,NW,322,5.0,9.0,10,0.00,,,0.00,meteohub,2013-06-27 01:10:00,
2013-06-26 19:15:00,85.3,24.8,29.69,NW,322,4.0,10.0,11,0.00,,,0.00,meteohub,2013-06-27 01:15:00,
2013-06-26 19:20:00,85.3,27.0,29.69,WNW,294,4.0,10.0,12,0.00,,,0.00,meteohub,2013-06-27 01:20:00,
2013-06-26 19:26:00,85.1,26.8,29.69,NW,326,3.0,10.0,12,0.00,,,0.00,meteohub,2013-06-27 01:26:00,
2013-06-26 19:31:00,85.3,27.0,29.69,NW,305,1.0,8.0,12,0.00,,,0.00,meteohub,2013-06-27 01:31:00,
2013-06-26 19:36:00,84.9,26.6,29.69,West,278,3.0,8.0,12,0.00,,,0.00,meteohub,2013-06-27 01:36:00,
2013-06-26 19:41:00,84.6,26.4,29.69,NNW,338,7.0,7.0,12,0.00,,,0.00,meteohub,2013-06-27 01:41:00,
2013-06-26 19:46:00,84.2,28.0,29.69,WNW,294,3.0,8.0,13,0.00,,,0.00,meteohub,2013-06-27 01:46:00,
2013-06-26 19:51:00,84.0,27.9,29.69,NW,307,3.0,8.0,13,0.00,,,0.00,meteohub,2013-06-27 01:51:00,
2013-06-26 19:56:00,83.7,27.7,29.69,NNW,347,5.0,7.0,13,0.00,,,0.00,meteohub,2013-06-27 01:56:00,
2013-06-26 20:01:00,82.2,26.4,29.69,NW,311,4.0,7.0,13,0.00,,,0.00,meteohub,2013-06-27 02:01:00,
2013-06-26 20:06:00,81.0,27.3,29.70,NW,324,3.0,8.0,14,0.00,,,0.00,meteohub,2013-06-27 02:06:00,
2013-06-26 20:11:00,80.1,26.6,29.70,NW,325,4.0,8.0,14,0.00,,,0.00,meteohub,2013-06-27 02:11:00,
2013-06-26 20:16:00,79.3,27.7,29.70,WNW,293,4.0,8.0,15,0.00,,,0.00,meteohub,2013-06-27 02:16:00,
2013-06-26 20:21:00,78.6,27.1,29.70,NW,309,6.0,7.0,15,0.00,,,0.00,meteohub,2013-06-27 02:21:00,
2013-06-26 20:26:00,78.3,26.8,29.70,NW,316,4.0,8.0,15,0.00,,,0.00,meteohub,2013-06-27 02:26:00,
2013-06-26 20:31:00,77.9,26.6,29.70,NW,319,4.0,8.0,15,0.00,,,0.00,meteohub,2013-06-27 02:31:00,
2013-06-26 20:36:00,77.5,26.2,29.70,WNW,302,4.0,8.0,15,0.00,,,0.00,meteohub,2013-06-27 02:36:00,
2013-06-26 20:41:00,77.0,27.3,29.70,NW,309,4.0,7.0,16,0.00,,,0.00,meteohub,2013-06-27 02:41:00,
2013-06-26 20:47:00,76.6,27.1,29.71,NW,304,4.0,7.0,16,0.00,,,0.00,meteohub,2013-06-27 02:47:00,
2013-06-26 20:52:00,76.6,27.1,29.71,West,271,4.0,8.0,16,0.00,,,0.00,meteohub,2013-06-27 02:52:00,
2013-06-26 20:57:00,76.5,27.0,29.71,SW,228,4.0,8.0,16,0.00,,,0.00,meteohub,2013-06-27 02:57:00,
2013-06-26 21:02:00,76.3,28.2,29.72,North,6,1.0,7.0,17,0.00,,,0.00,meteohub,2013-06-27 03:02:00,
2013-06-26 21:07:00,75.2,27.3,29.72,NE,44,1.0,7.0,17,0.00,,,0.00,meteohub,2013-06-27 03:07:00,
2013-06-26 21:12:00,74.7,28.4,29.72,East,79,4.0,6.0,18,0.00,,,0.00,meteohub,2013-06-27 03:12:00,
2013-06-26 21:17:00,73.6,27.5,29.73,NW,317,1.0,7.0,18,0.00,,,0.00,meteohub,2013-06-27 03:17:00,
2013-06-26 21:22:00,72.9,28.2,29.73,NE,39,11.0,11.0,19,0.00,,,0.00,meteohub,2013-06-27 03:22:00,
2013-06-26 21:27:00,73.2,28.4,29.73,NE,49,5.0,13.0,19,0.00,,,0.00,meteohub,2013-06-27 03:27:00,
2013-06-26 21:32:00,73.9,29.1,29.73,NNE,21,7.0,13.0,19,0.00,,,0.00,meteohub,2013-06-27 03:32:00,
2013-06-26 21:37:00,74.3,29.3,29.73,NW,313,4.0,15.0,19,0.00,,,0.00,meteohub,2013-06-27 03:37:00,
2013-06-26 21:42:00,73.0,28.4,29.74,NW,321,6.0,15.0,19,0.00,,,0.00,meteohub,2013-06-27 03:42:00,
2013-06-26 21:47:00,73.2,28.4,29.74,NNW,333,9.0,15.0,19,0.00,,,0.00,meteohub,2013-06-27 03:47:00,
2013-06-26 21:52:00,73.8,28.9,29.74,NNW,338,7.0,11.0,19,0.00,,,0.00,meteohub,2013-06-27 03:52:00,
2013-06-26 21:57:00,73.2,29.7,29.74,NNW,332,8.0,12.0,20,0.00,,,0.00,meteohub,2013-06-27 03:57:00,
2013-06-26 22:01:00,73.2,29.7,29.74,North,359,6.0,12.0,20,0.00,,,0.00,meteohub,2013-06-27 04:01:00,
2013-06-26 22:02:00,73.2,29.7,29.74,NNE,20,6.0,12.0,20,0.00,,,0.00,meteohub,2013-06-27 04:02:00,
2013-06-26 22:05:00,73.0,29.7,29.74,North,6,4.0,12.0,20,0.00,,,0.00,meteohub,2013-06-27 04:05:00,
2013-06-26 22:10:00,72.0,29.8,29.75,NNW,347,7.0,12.0,21,0.00,,,0.00,meteohub,2013-06-27 04:10:00,
2013-06-26 22:12:00,71.8,29.7,29.75,NNE,16,10.0,12.0,21,0.00,,,0.00,meteohub,2013-06-27 04:12:00,
2013-06-26 22:17:00,71.6,30.7,29.75,NNE,19,8.0,12.0,22,0.00,,,0.00,meteohub,2013-06-27 04:17:00,
2013-06-26 22:22:00,71.2,30.4,29.75,NNW,343,10.0,12.0,22,0.00,,,0.00,meteohub,2013-06-27 04:22:00,
2013-06-26 22:27:00,71.4,31.6,29.75,NNW,344,19.0,19.0,23,0.00,,,0.00,meteohub,2013-06-27 04:27:00,
2013-06-26 22:32:00,72.0,31.1,29.76,North,349,14.0,20.0,22,0.00,,,0.00,meteohub,2013-06-27 04:32:00,
2013-06-26 22:37:00,71.8,32.0,29.76,NNW,341,12.0,20.0,23,0.00,,,0.00,meteohub,2013-06-27 04:37:00,
2013-06-26 22:42:00,72.1,31.1,29.76,NNW,339,8.0,20.0,22,0.00,,,0.00,meteohub,2013-06-27 04:42:00,
2013-06-26 22:47:00,72.1,31.1,29.76,NW,319,13.0,18.0,22,0.00,,,0.00,meteohub,2013-06-27 04:47:00,
2013-06-26 22:52:00,72.0,32.2,29.76,NW,316,10.0,19.0,23,0.00,,,0.00,meteohub,2013-06-27 04:52:00,
2013-06-26 22:57:00,72.0,31.1,29.77,NW,323,9.0,19.0,22,0.00,,,0.00,meteohub,2013-06-27 04:57:00,
2013-06-26 23:02:00,71.8,30.9,29.77,WNW,297,6.0,17.0,22,0.00,,,0.00,meteohub,2013-06-27 05:02:00,
2013-06-26 23:07:00,71.6,30.7,29.77,NNW,338,9.0,15.0,22,0.00,,,0.00,meteohub,2013-06-27 05:07:00,
2013-06-26 23:12:00,71.6,30.7,29.77,NW,308,11.0,16.0,22,0.00,,,0.00,meteohub,2013-06-27 05:12:00,
2013-06-26 23:17:00,71.4,29.5,29.77,NW,315,9.0,17.0,21,0.00,,,0.00,meteohub,2013-06-27 05:17:00,
2013-06-26 23:22:00,71.4,29.5,29.77,NW,326,7.0,17.0,21,0.00,,,0.00,meteohub,2013-06-27 05:22:00,
2013-06-26 23:28:00,71.2,28.0,29.77,NW,317,9.0,17.0,20,0.00,,,0.00,meteohub,2013-06-27 05:28:00,
2013-06-26 23:33:00,71.2,29.3,29.78,NW,323,8.0,15.0,21,0.00,,,0.00,meteohub,2013-06-27 05:33:00,
2013-06-26 23:38:00,71.4,29.5,29.77,NNW,328,9.0,13.0,21,0.00,,,0.00,meteohub,2013-06-27 05:38:00,
2013-06-26 23:43:00,70.2,30.6,29.78,NNW,332,7.0,14.0,23,0.00,,,0.00,meteohub,2013-06-27 05:43:00,
2013-06-26 23:48:00,68.7,30.4,29.78,NNE,20,5.0,14.0,24,0.00,,,0.00,meteohub,2013-06-27 05:48:00,
2013-06-26 23:53:00,69.1,30.7,29.78,North,353,6.0,13.0,24,0.00,,,0.00,meteohub,2013-06-27 05:53:00,
2013-06-26 23:58:00,68.7,31.5,29.78,NNW,330,5.0,12.0,25,0.00,,,0.00,meteohub,2013-06-27 05:58:00,